| time (UTC) | temp F | wind direction | speed knots | gust knots | rain 1hr in | rain 24hr in | rain mn in | humidity % | barometer mb |
| 20260510190533 | 73 | 360 | 0.9 | 4.3 | 0.00 | 0.12 | 0.01 | 60 | 1013.4 |
| 20260510190056 | 74 | 0 | 0.9 | 4.3 | 0.00 | 0.12 | 0.01 | 62 | 1013.4 |
| 20260510185530 | 74 | 227 | 0.9 | 4.3 | 0.00 | 0.13 | 0.01 | 60 | 1013.4 |
| 20260510185032 | 73 | 49 | 1.7 | 4.3 | 0.00 | 0.13 | 0.01 | 60 | 1013.5 |
| 20260510184550 | 73 | 10 | 0.0 | 6.1 | 0.00 | 0.13 | 0.01 | 60 | 1013.4 |
| 20260510184030 | 74 | 36 | 0.0 | 7.0 | 0.00 | 0.13 | 0.01 | 59 | 1013.4 |
| 20260510183530 | 74 | 308 | 1.7 | 7.0 | 0.00 | 0.13 | 0.01 | 58 | 1013.4 |
| 20260510183053 | 75 | 239 | 0.9 | 7.8 | 0.00 | 0.13 | 0.01 | 59 | 1013.6 |
| 20260510182529 | 74 | 352 | 0.9 | 7.8 | 0.00 | 0.13 | 0.01 | 60 | 1013.4 |
| 20260510182029 | 74 | 17 | 1.7 | 7.8 | 0.00 | 0.13 | 0.01 | 55 | 1013.5 |
| 20260510181546 | 75 | 355 | 0.9 | 5.2 | 0.00 | 0.13 | 0.01 | 58 | 1013.5 |
| 20260510181033 | 74 | 352 | 1.7 | 5.2 | 0.00 | 0.13 | 0.01 | 62 | 1013.3 |
| 20260510180537 | 74 | 12 | 1.7 | 4.3 | 0.00 | 0.13 | 0.01 | 63 | 1013.5 |
| 20260510180051 | 73 | 173 | 0.9 | 4.3 | 0.00 | 0.13 | 0.01 | 62 | 1013.4 |
| 20260510175530 | 73 | 190 | 1.7 | 4.3 | 0.00 | 0.13 | 0.01 | 60 | 1013.4 |
| 20260510175033 | 73 | 281 | 0.9 | 7.0 | 0.00 | 0.13 | 0.01 | 61 | 1013.4 |
| 20260510174540 | 74 | 105 | 1.7 | 7.0 | 0.00 | 0.13 | 0.01 | 59 | 1013.4 |
| 20260510174032 | 73 | 294 | 0.9 | 4.3 | 0.00 | 0.13 | 0.01 | 63 | 1013.4 |
| 20260510173534 | 72 | 338 | 1.7 | 4.3 | 0.00 | 0.13 | 0.01 | 60 | 1013.4 |
| 20260510173049 | 73 | 200 | 1.7 | 4.3 | 0.00 | 0.13 | 0.01 | 61 | 1013.4 |
| 20260510172530 | 73 | 286 | 0.0 | 5.2 | 0.00 | 0.13 | 0.01 | 60 | 1013.3 |
| 20260510172032 | 73 | 167 | 0.9 | 5.2 | 0.00 | 0.13 | 0.01 | 61 | 1013.3 |
| 20260510171547 | 74 | 321 | 0.9 | 6.1 | 0.00 | 0.13 | 0.01 | 60 | 1013.2 |
| 20260510171034 | 74 | 198 | 2.6 | 6.1 | 0.00 | 0.13 | 0.01 | 59 | 1013.2 |
| 20260510170535 | 74 | 80 | 0.9 | 4.3 | 0.00 | 0.13 | 0.01 | 60 | 1013.1 |
| 20260510170058 | 74 | 141 | 0.0 | 3.5 | 0.00 | 0.13 | 0.01 | 60 | 1013.1 |
| 20260510165532 | 74 | 219 | 0.9 | 4.3 | 0.00 | 0.13 | 0.01 | 65 | 1013.2 |
| 20260510165033 | 73 | 0 | 1.7 | 5.2 | 0.00 | 0.13 | 0.01 | 62 | 1013.0 |
| 20260510164542 | 73 | 346 | 0.0 | 5.2 | 0.00 | 0.13 | 0.01 | 62 | 1013.1 |
| 20260510164031 | 73 | 177 | 0.9 | 5.2 | 0.00 | 0.13 | 0.01 | 62 | 1013.3 |
| 20260510163530 | 73 | 34 | 0.9 | 5.2 | 0.00 | 0.13 | 0.01 | 62 | 1013.3 |
| 20260510163043 | 72 | 249 | 0.9 | 5.2 | 0.00 | 0.13 | 0.01 | 66 | 1013.2 |
| 20260510162530 | 72 | 257 | 0.9 | 2.6 | 0.00 | 0.13 | 0.01 | 69 | 1013.2 |
| 20260510162031 | 71 | 46 | 0.9 | 3.5 | 0.00 | 0.13 | 0.01 | 65 | 1013.3 |
| 20260510161545 | 71 | 172 | 0.9 | 3.5 | 0.00 | 0.13 | 0.01 | 67 | 1013.2 |
| 20260510161030 | 71 | 224 | 0.9 | 3.5 | 0.00 | 0.13 | 0.01 | 72 | 1013.2 |
| 20260510160533 | 70 | 189 | 0.9 | 3.5 | 0.00 | 0.13 | 0.01 | 73 | 1013.2 |
| 20260510160057 | 69 | 208 | 0.9 | 3.5 | 0.00 | 0.13 | 0.01 | 75 | 1013.3 |
| 20260510155531 | 69 | 0 | 0.9 | 3.5 | 0.00 | 0.13 | 0.01 | 75 | 1013.3 |
| 20260510155030 | 68 | 88 | 0.9 | 3.5 | 0.00 | 0.13 | 0.01 | 77 | 1013.3 |
| 20260510154555 | 68 | 50 | 0.0 | 4.3 | 0.00 | 0.13 | 0.01 | 81 | 1013.4 |
| 20260510154031 | 67 | 352 | 0.9 | 4.3 | 0.00 | 0.13 | 0.01 | 76 | 1013.5 |
| 20260510153533 | 67 | 0 | 0.9 | 3.5 | 0.00 | 0.13 | 0.01 | 79 | 1013.7 |
| 20260510153045 | 67 | 0 | 0.0 | 2.6 | 0.00 | 0.13 | 0.01 | 84 | 1013.7 |
| 20260510152533 | 65 | 90 | 0.9 | 2.6 | 0.00 | 0.13 | 0.01 | 80 | 1013.6 |
| 20260510152035 | 65 | 117 | 0.9 | 2.6 | 0.00 | 0.13 | 0.01 | 82 | 1013.6 |
| 20260510151541 | 64 | 0 | 0.9 | 2.6 | 0.00 | 0.13 | 0.01 | 82 | 1013.5 |
| 20260510151033 | 64 | 300 | 0.0 | 1.7 | 0.00 | 0.13 | 0.01 | 85 | 1013.6 |
| 20260510150534 | 63 | 0 | 0.0 | 2.6 | 0.00 | 0.13 | 0.01 | 84 | 1013.7 |
| 20260510150044 | 62 | 0 | 0.0 | 3.5 | 0.00 | 0.13 | 0.01 | 85 | 1013.8 |
| 20260510145531 | 62 | 66 | 0.9 | 3.5 | 0.00 | 0.13 | 0.01 | 85 | 1013.7 |
| 20260510145029 | 62 | 283 | 0.9 | 2.6 | 0.00 | 0.13 | 0.01 | 86 | 1013.6 |
| 20260510144548 | 61 | 181 | 0.0 | 2.6 | 0.00 | 0.13 | 0.01 | 88 | 1013.6 |
| 20260510144030 | 61 | 329 | 0.0 | 1.7 | 0.00 | 0.13 | 0.01 | 89 | 1013.6 |
| 20260510143529 | 61 | 254 | 0.0 | 2.6 | 0.00 | 0.13 | 0.01 | 90 | 1013.6 |
| 20260510143046 | 60 | 0 | 0.0 | 2.6 | 0.00 | 0.13 | 0.01 | 91 | 1013.6 |
| 20260510142531 | 59 | 163 | 0.0 | 2.6 | 0.00 | 0.13 | 0.01 | 91 | 1013.7 |
| 20260510142033 | 59 | 329 | 0.0 | 1.7 | 0.00 | 0.13 | 0.01 | 92 | 1013.7 |
| 20260510141548 | 59 | 0 | 0.0 | 1.7 | 0.00 | 0.13 | 0.01 | 93 | 1013.7 |
| 20260510141030 | 58 | 107 | 0.0 | 1.7 | 0.00 | 0.13 | 0.01 | 94 | 1013.7 |
| 20260510140530 | 57 | 0 | 0.9 | 1.7 | 0.00 | 0.13 | 0.01 | 94 | 1013.6 |
| 20260510140047 | 56 | 175 | 0.9 | 1.7 | 0.00 | 0.13 | 0.01 | 94 | 1013.6 |
| 20260510135532 | 56 | 168 | 0.0 | 1.7 | 0.00 | 0.13 | 0.01 | 94 | 1013.5 |
| 20260510135031 | 56 | 0 | 0.0 | 2.6 | 0.00 | 0.13 | 0.01 | 95 | 1013.5 |
| 20260510134550 | 55 | 0 | 0.0 | 2.6 | 0.00 | 0.13 | 0.01 | 95 | 1013.5 |
| 20260510134029 | 55 | 0 | 0.0 | 1.7 | 0.00 | 0.13 | 0.01 | 95 | 1013.5 |
| 20260510133531 | 55 | 0 | 0.0 | 1.7 | 0.00 | 0.13 | 0.01 | 95 | 1013.6 |
| 20260510133045 | 55 | 0 | 0.0 | 1.7 | 0.00 | 0.13 | 0.01 | 95 | 1013.5 |
| 20260510132534 | 55 | 0 | 0.0 | 1.7 | 0.00 | 0.13 | 0.01 | 95 | 1013.5 |
| 20260510132033 | 55 | 112 | 0.0 | 1.7 | 0.00 | 0.13 | 0.01 | 95 | 1013.5 |
| 20260510131546 | 54 | 0 | 0.9 | 1.7 | 0.00 | 0.13 | 0.01 | 95 | 1013.6 |
| 20260510131029 | 54 | 0 | 0.0 | 1.7 | 0.00 | 0.13 | 0.01 | 96 | 1013.7 |
| 20260510130529 | 54 | 0 | 0.0 | 1.7 | 0.00 | 0.13 | 0.01 | 95 | 1013.7 |
| 20260510130041 | 54 | 355 | 0.0 | 1.7 | 0.00 | 0.13 | 0.01 | 95 | 1013.8 |
| 20260510125530 | 54 | 0 | 0.0 | 1.7 | 0.00 | 0.13 | 0.01 | 95 | 1013.8 |
| 20260510125030 | 54 | 71 | 0.0 | 1.7 | 0.00 | 0.13 | 0.01 | 95 | 1013.8 |
| 20260510124556 | 53 | 0 | 0.0 | 0.9 | 0.00 | 0.13 | 0.01 | 95 | 1013.7 |
| 20260510124030 | 53 | 0 | 0.0 | 1.7 | 0.00 | 0.13 | 0.01 | 95 | 1013.5 |
| 20260510123530 | 53 | 0 | 0.0 | 1.7 | 0.00 | 0.13 | 0.01 | 95 | 1013.4 |
| 20260510123047 | 53 | 0 | 0.0 | 1.7 | 0.00 | 0.13 | 0.01 | 95 | 1013.3 |
| 20260510122529 | 53 | 285 | 0.0 | 1.7 | 0.00 | 0.13 | 0.01 | 95 | 1013.3 |
| 20260510122029 | 53 | 0 | 0.0 | 0.9 | 0.00 | 0.13 | 0.01 | 96 | 1013.1 |
| 20260510121544 | 52 | 61 | 0.0 | 0.9 | 0.00 | 0.13 | 0.01 | 95 | 1012.9 |
| 20260510121030 | 52 | 0 | 0.0 | 1.7 | 0.00 | 0.13 | 0.01 | 95 | 1013.0 |
| 20260510120533 | 52 | 61 | 0.0 | 1.7 | 0.00 | 0.13 | 0.01 | 95 | 1012.8 |
| 20260510120044 | 52 | 0 | 0.0 | 1.7 | 0.00 | 0.13 | 0.01 | 95 | 1012.9 |
| 20260510115529 | 52 | 0 | 0.0 | 0.9 | 0.00 | 0.13 | 0.01 | 95 | 1012.8 |
| 20260510115033 | 52 | 0 | 0.0 | 1.7 | 0.00 | 0.13 | 0.01 | 95 | 1012.8 |
| 20260510114541 | 52 | 0 | 0.0 | 1.7 | 0.00 | 0.13 | 0.01 | 95 | 1012.8 |
| 20260510114030 | 52 | 53 | 0.0 | 0.9 | 0.00 | 0.13 | 0.01 | 95 | 1012.7 |
| 20260510113530 | 51 | 0 | 0.0 | 0.9 | 0.00 | 0.13 | 0.01 | 95 | 1012.7 |
| 20260510113046 | 51 | 0 | 0.0 | 0.9 | 0.00 | 0.13 | 0.01 | 95 | 1012.7 |
| 20260510112534 | 51 | 355 | 0.0 | 1.7 | 0.00 | 0.13 | 0.01 | 95 | 1012.7 |
| 20260510112033 | 51 | 0 | 0.0 | 1.7 | 0.00 | 0.13 | 0.01 | 95 | 1012.7 |
| 20260510111545 | 51 | 5 | 0.0 | 0.9 | 0.00 | 0.13 | 0.01 | 95 | 1012.8 |
| 20260510111029 | 51 | 0 | 0.0 | 0.9 | 0.00 | 0.13 | 0.01 | 95 | 1012.7 |
| 20260510110533 | 51 | 0 | 0.0 | 0.9 | 0.00 | 0.13 | 0.01 | 95 | 1012.7 |
| 20260510110047 | 51 | 0 | 0.0 | 0.9 | 0.00 | 0.13 | 0.01 | 95 | 1012.7 |
| 20260510105530 | 51 | 5 | 0.0 | 1.7 | 0.00 | 0.13 | 0.01 | 95 | 1012.6 |
| 20260510105035 | 51 | 0 | 0.0 | 1.7 | 0.00 | 0.13 | 0.01 | 95 | 1012.7 |
| 20260510104543 | 50 | 352 | 0.0 | 1.7 | 0.00 | 0.13 | 0.01 | 95 | 1012.4 |
| 20260510104033 | 50 | 0 | 0.0 | 1.7 | 0.00 | 0.13 | 0.01 | 95 | 1012.3 |
| 20260510103533 | 50 | 355 | 0.0 | 1.7 | 0.00 | 0.13 | 0.01 | 95 | 1012.3 |
| 20260510103044 | 50 | 21 | 0.0 | 1.7 | 0.00 | 0.13 | 0.01 | 95 | 1012.3 |
| 20260510102529 | 50 | 0 | 0.0 | 0.9 | 0.00 | 0.13 | 0.01 | 95 | 1012.3 |
| 20260510102029 | 50 | 0 | 0.0 | 0.9 | 0.00 | 0.13 | 0.01 | 95 | 1012.2 |
| 20260510101542 | 50 | 0 | 0.0 | 0.9 | 0.00 | 0.13 | 0.01 | 95 | 1012.2 |
| 20260510101029 | 49 | 0 | 0.0 | 0.9 | 0.00 | 0.13 | 0.01 | 95 | 1012.2 |
| 20260510100536 | 49 | 0 | 0.0 | 0.9 | 0.00 | 0.13 | 0.01 | 95 | 1012.2 |
| 20260510100045 | 49 | 0 | 0.0 | 0.9 | 0.00 | 0.13 | 0.01 | 95 | 1012.2 |
| 20260510095535 | 49 | 0 | 0.0 | 0.9 | 0.00 | 0.13 | 0.01 | 95 | 1012.2 |
| 20260510095032 | 49 | 0 | 0.0 | 0.9 | 0.00 | 0.13 | 0.01 | 94 | 1012.3 |
| 20260510094557 | 49 | 0 | 0.0 | 0.0 | 0.00 | 0.13 | 0.01 | 94 | 1012.0 |
| 20260510094033 | 49 | 0 | 0.0 | 0.0 | 0.00 | 0.13 | 0.01 | 94 | 1012.1 |
| 20260510093530 | 49 | 0 | 0.0 | 0.9 | 0.00 | 0.13 | 0.01 | 94 | 1012.0 |
| 20260510093056 | 49 | 0 | 0.0 | 0.9 | 0.00 | 0.13 | 0.01 | 94 | 1011.9 |
| 20260510092530 | 49 | 0 | 0.0 | 0.9 | 0.00 | 0.13 | 0.01 | 94 | 1012.0 |
| 20260510092029 | 49 | 0 | 0.0 | 0.9 | 0.01 | 0.13 | 0.01 | 94 | 1012.2 |
| 20260510091548 | 49 | 0 | 0.0 | 0.0 | 0.01 | 0.13 | 0.01 | 94 | 1012.3 |
| 20260510091029 | 49 | 0 | 0.0 | 0.9 | 0.01 | 0.13 | 0.01 | 94 | 1012.2 |
| 20260510090530 | 49 | 0 | 0.0 | 0.9 | 0.01 | 0.13 | 0.01 | 94 | 1012.1 |
| 20260510090042 | 49 | 0 | 0.0 | 0.9 | 0.01 | 0.13 | 0.01 | 94 | 1012.0 |
| 20260510085529 | 49 | 0 | 0.0 | 0.9 | 0.01 | 0.13 | 0.01 | 94 | 1012.1 |
| 20260510085029 | 49 | 360 | 0.0 | 1.7 | 0.01 | 0.13 | 0.01 | 94 | 1012.2 |
| 20260510084544 | 49 | 0 | 0.0 | 1.7 | 0.01 | 0.13 | 0.01 | 94 | 1012.1 |
| 20260510084037 | 49 | 360 | 0.0 | 1.7 | 0.01 | 0.13 | 0.01 | 94 | 1012.2 |
| 20260510083533 | 49 | 305 | 0.0 | 2.6 | 0.01 | 0.13 | 0.01 | 94 | 1012.3 |
| 20260510083046 | 49 | 72 | 0.0 | 4.3 | 0.01 | 0.13 | 0.01 | 94 | 1012.1 |
| 20260510082530 | 49 | 329 | 0.9 | 4.3 | 0.01 | 0.13 | 0.01 | 94 | 1012.3 |
| 20260510082034 | 49 | 173 | 1.7 | 7.0 | 0.00 | 0.12 | 0.00 | 94 | 1012.1 |
| 20260510081543 | 49 | 328 | 0.9 | 7.0 | 0.00 | 0.12 | 0.00 | 94 | 1012.0 |
| 20260510081030 | 49 | 18 | 0.9 | 2.6 | 0.00 | 0.12 | 0.00 | 94 | 1012.2 |
| 20260510080530 | 49 | 0 | 0.0 | 0.9 | 0.00 | 0.12 | 0.00 | 94 | 1011.7 |
| 20260510080044 | 49 | 0 | 0.0 | 0.9 | 0.00 | 0.12 | 0.00 | 94 | 1011.5 |
| 20260510075550 | 49 | 0 | 0.0 | 0.9 | 0.00 | 0.12 | 0.00 | 94 | 1011.6 |
| 20260510075036 | 49 | 0 | 0.0 | 0.9 | 0.00 | 0.12 | 0.00 | 94 | 1011.5 |
| 20260510074544 | 49 | 0 | 0.0 | 0.0 | 0.00 | 0.12 | 0.00 | 94 | 1011.5 |
| 20260510074032 | 49 | 0 | 0.0 | 0.0 | 0.00 | 0.12 | 0.00 | 94 | 1011.4 |
| 20260510073530 | 49 | 0 | 0.0 | 0.0 | 0.00 | 0.12 | 0.00 | 94 | 1011.4 |
| 20260510073047 | 49 | 0 | 0.0 | 0.0 | 0.00 | 0.12 | 0.00 | 94 | 1011.5 |
| 20260510072533 | 49 | 0 | 0.0 | 0.9 | 0.00 | 0.12 | 0.00 | 94 | 1011.5 |
| 20260510072030 | 49 | 0 | 0.0 | 0.9 | 0.00 | 0.12 | 0.00 | 94 | 1011.4 |
| 20260510071550 | 49 | 0 | 0.0 | 0.9 | 0.00 | 0.12 | 0.00 | 94 | 1011.5 |
| 20260510071030 | 49 | 0 | 0.0 | 0.9 | 0.00 | 0.12 | 0.00 | 94 | 1011.3 |
| 20260510070533 | 49 | 0 | 0.0 | 0.0 | 0.00 | 0.12 | 0.00 | 93 | 1011.3 |
| 20260510070047 | 49 | 0 | 0.0 | 1.7 | 0.00 | 0.12 | 0.00 | 93 | 1011.4 |
| 20260510065530 | 49 | 0 | 0.0 | 1.7 | 0.00 | 0.12 | 0.00 | 93 | 1011.5 |
| 20260510065030 | 49 | 0 | 0.0 | 1.7 | 0.00 | 0.12 | 0.00 | 93 | 1011.4 |
| 20260510064544 | 49 | 0 | 0.0 | 1.7 | 0.00 | 0.12 | 0.00 | 93 | 1011.5 |
| 20260510064029 | 49 | 5 | 0.0 | 1.7 | 0.00 | 0.12 | 0.00 | 93 | 1011.3 |
| 20260510063530 | 49 | 0 | 0.0 | 1.7 | 0.00 | 0.12 | 0.00 | 93 | 1011.4 |
| 20260510063044 | 49 | 0 | 0.0 | 1.7 | 0.00 | 0.12 | 0.00 | 93 | 1011.3 |
| 20260510062530 | 49 | 0 | 0.0 | 0.9 | 0.00 | 0.12 | 0.00 | 93 | 1011.2 |
| 20260510062030 | 49 | 0 | 0.0 | 0.0 | 0.00 | 0.12 | 0.00 | 93 | 1011.2 |
| 20260510061543 | 49 | 0 | 0.0 | 0.0 | 0.00 | 0.12 | 0.00 | 93 | 1011.1 |
| 20260510061030 | 49 | 0 | 0.0 | 0.0 | 0.00 | 0.12 | 0.00 | 93 | 1011.1 |
| 20260510060530 | 49 | 0 | 0.0 | 0.0 | 0.00 | 0.12 | 0.00 | 93 | 1011.2 |
| 20260510060042 | 49 | 0 | 0.0 | 0.0 | 0.00 | 0.12 | 0.00 | 93 | 1011.2 |
| 20260510055530 | 49 | 0 | 0.0 | 0.0 | 0.00 | 0.12 | 0.00 | 93 | 1011.2 |
| 20260510055030 | 49 | 0 | 0.0 | 0.0 | 0.00 | 0.12 | 0.00 | 93 | 1011.2 |
| 20260510054543 | 49 | 0 | 0.0 | 0.0 | 0.00 | 0.12 | 0.00 | 93 | 1011.2 |
| 20260510054031 | 49 | 0 | 0.0 | 0.0 | 0.00 | 0.12 | 0.00 | 93 | 1011.3 |
| 20260510053533 | 49 | 0 | 0.0 | 0.0 | 0.00 | 0.12 | 0.00 | 93 | 1011.2 |
| 20260510053058 | 49 | 0 | 0.0 | 0.0 | 0.00 | 0.12 | 0.00 | 93 | 1011.3 |
| 20260510052531 | 49 | 0 | 0.0 | 0.0 | 0.00 | 0.12 | 0.00 | 92 | 1011.3 |
| 20260510052031 | 49 | 0 | 0.0 | 0.0 | 0.00 | 0.12 | 0.00 | 92 | 1011.4 |
| 20260510051549 | 49 | 0 | 0.0 | 0.0 | 0.00 | 0.12 | 0.00 | 92 | 1011.5 |
| 20260510051031 | 49 | 0 | 0.0 | 0.0 | 0.00 | 0.12 | 0.00 | 92 | 1011.4 |
| 20260510050530 | 49 | 0 | 0.0 | 0.0 | 0.00 | 0.12 | 0.00 | 92 | 1011.5 |
| 20260510050046 | 49 | 0 | 0.0 | 0.0 | 0.00 | 0.12 | 0.00 | 92 | 1011.5 |
| 20260510045532 | 48 | 0 | 0.0 | 0.0 | 0.00 | 0.12 | 0.00 | 92 | 1011.6 |
| 20260510045057 | 48 | 0 | 0.0 | 0.0 | 0.00 | 0.12 | 0.00 | 92 | 1011.6 |
| 20260510044548 | 48 | 0 | 0.0 | 0.0 | 0.00 | 0.12 | 0.00 | 92 | 1011.5 |
| 20260510044031 | 48 | 0 | 0.0 | 0.0 | 0.00 | 0.12 | 0.00 | 92 | 1011.5 |
| 20260510043531 | 48 | 0 | 0.0 | 0.0 | 0.00 | 0.12 | 0.00 | 92 | 1011.6 |
| 20260510043053 | 48 | 0 | 0.0 | 0.0 | 0.00 | 0.12 | 0.00 | 92 | 1011.7 |
| 20260510042532 | 48 | 0 | 0.0 | 0.0 | 0.00 | 0.12 | 0.00 | 92 | 1011.6 |
| 20260510042031 | 48 | 0 | 0.0 | 0.0 | 0.00 | 0.12 | 0.00 | 92 | 1011.6 |
| 20260510041542 | 48 | 0 | 0.0 | 0.0 | 0.00 | 0.12 | 0.00 | 91 | 1011.6 |
| 20260510041031 | 48 | 0 | 0.0 | 0.0 | 0.00 | 0.12 | 0.00 | 91 | 1011.7 |
| 20260510040531 | 48 | 0 | 0.0 | 0.0 | 0.00 | 0.12 | 0.00 | 91 | 1011.6 |
| 20260510040049 | 48 | 0 | 0.0 | 0.0 | 0.00 | 0.12 | 0.00 | 91 | 1011.6 |
| 20260510035531 | 48 | 0 | 0.0 | 0.0 | 0.00 | 0.12 | 0.12 | 91 | 1011.7 |
| 20260510035031 | 48 | 0 | 0.0 | 0.0 | 0.00 | 0.12 | 0.12 | 91 | 1011.6 |
| 20260510034547 | 48 | 0 | 0.0 | 0.0 | 0.00 | 0.12 | 0.12 | 91 | 1011.6 |
| 20260510034031 | 48 | 0 | 0.0 | 0.0 | 0.00 | 0.12 | 0.12 | 91 | 1011.6 |
| 20260510033532 | 48 | 0 | 0.0 | 0.0 | 0.00 | 0.12 | 0.12 | 91 | 1011.5 |
| 20260510033043 | 48 | 0 | 0.0 | 0.0 | 0.00 | 0.12 | 0.12 | 91 | 1011.5 |
| 20260510032531 | 48 | 0 | 0.0 | 0.0 | 0.00 | 0.12 | 0.12 | 90 | 1011.4 |
| 20260510032033 | 49 | 0 | 0.0 | 0.0 | 0.00 | 0.12 | 0.12 | 90 | 1011.5 |
| 20260510031547 | 49 | 0 | 0.0 | 0.0 | 0.00 | 0.12 | 0.12 | 90 | 1011.4 |
| 20260510031031 | 49 | 0 | 0.0 | 0.0 | 0.00 | 0.12 | 0.12 | 90 | 1011.5 |
| 20260510030531 | 49 | 0 | 0.0 | 0.0 | 0.00 | 0.12 | 0.12 | 90 | 1011.4 |
| 20260510030041 | 49 | 0 | 0.0 | 0.0 | 0.00 | 0.12 | 0.12 | 90 | 1011.4 |
| 20260510025533 | 49 | 0 | 0.0 | 0.0 | 0.00 | 0.12 | 0.12 | 90 | 1011.4 |
| 20260510025034 | 49 | 0 | 0.0 | 0.0 | 0.00 | 0.12 | 0.12 | 90 | 1011.4 |
| 20260510024548 | 49 | 0 | 0.0 | 0.0 | 0.00 | 0.12 | 0.12 | 90 | 1011.3 |
| 20260510024031 | 49 | 0 | 0.0 | 0.0 | 0.00 | 0.12 | 0.12 | 90 | 1011.2 |
| 20260510023533 | 49 | 0 | 0.0 | 0.0 | 0.00 | 0.12 | 0.12 | 90 | 1011.2 |
| 20260510023046 | 49 | 0 | 0.0 | 0.0 | 0.00 | 0.12 | 0.12 | 90 | 1011.2 |
| 20260510022533 | 50 | 0 | 0.0 | 0.0 | 0.00 | 0.12 | 0.12 | 89 | 1011.2 |
| 20260510022032 | 50 | 0 | 0.0 | 0.0 | 0.00 | 0.12 | 0.12 | 89 | 1011.3 |
| 20260510021549 | 50 | 0 | 0.0 | 0.0 | 0.00 | 0.12 | 0.12 | 89 | 1011.3 |
| 20260510021029 | 50 | 0 | 0.0 | 0.0 | 0.00 | 0.12 | 0.12 | 89 | 1011.3 |
| 20260510020534 | 50 | 0 | 0.0 | 0.9 | 0.00 | 0.12 | 0.12 | 89 | 1011.4 |
| 20260510020044 | 50 | 0 | 0.0 | 0.9 | 0.00 | 0.12 | 0.12 | 89 | 1011.4 |
| 20260510015530 | 50 | 0 | 0.0 | 0.9 | 0.00 | 0.12 | 0.12 | 89 | 1011.3 |
| 20260510015029 | 50 | 0 | 0.0 | 0.0 | 0.00 | 0.12 | 0.12 | 89 | 1011.3 |
| 20260510014546 | 50 | 0 | 0.0 | 0.9 | 0.00 | 0.12 | 0.12 | 89 | 1011.2 |
| 20260510014030 | 51 | 0 | 0.0 | 0.9 | 0.00 | 0.12 | 0.12 | 89 | 1011.4 |
| 20260510013534 | 51 | 0 | 0.0 | 0.0 | 0.00 | 0.12 | 0.12 | 88 | 1011.3 |
| 20260510013049 | 51 | 0 | 0.0 | 0.0 | 0.00 | 0.12 | 0.12 | 88 | 1011.2 |
| 20260510012532 | 51 | 0 | 0.0 | 0.0 | 0.00 | 0.12 | 0.12 | 87 | 1011.1 |
| 20260510012029 | 51 | 0 | 0.0 | 0.0 | 0.00 | 0.12 | 0.12 | 87 | 1011.3 |
| 20260510011549 | 51 | 0 | 0.0 | 0.0 | 0.00 | 0.12 | 0.12 | 87 | 1011.1 |
| 20260510011033 | 51 | 0 | 0.0 | 0.0 | 0.00 | 0.12 | 0.12 | 88 | 1011.0 |
| 20260510010530 | 52 | 0 | 0.0 | 0.0 | 0.00 | 0.12 | 0.12 | 88 | 1011.0 |
| 20260510010043 | 52 | 0 | 0.0 | 0.0 | 0.00 | 0.12 | 0.12 | 88 | 1010.9 |
| 20260510005533 | 52 | 0 | 0.0 | 0.0 | 0.00 | 0.12 | 0.12 | 88 | 1010.9 |
| 20260510005033 | 52 | 0 | 0.0 | 0.0 | 0.00 | 0.12 | 0.12 | 87 | 1010.9 |
| 20260510004541 | 52 | 0 | 0.0 | 0.0 | 0.00 | 0.12 | 0.12 | 87 | 1010.8 |
| 20260510004032 | 53 | 0 | 0.0 | 0.0 | 0.00 | 0.12 | 0.12 | 87 | 1010.7 |
| 20260510003530 | 53 | 0 | 0.0 | 0.0 | 0.00 | 0.12 | 0.12 | 87 | 1010.6 |
| 20260510003046 | 53 | 0 | 0.0 | 0.0 | 0.00 | 0.12 | 0.12 | 87 | 1010.5 |
| 20260510002531 | 53 | 0 | 0.0 | 0.0 | 0.00 | 0.12 | 0.12 | 87 | 1010.5 |
| 20260510002029 | 54 | 0 | 0.0 | 0.0 | 0.00 | 0.12 | 0.12 | 87 | 1010.6 |
| 20260510001545 | 54 | 0 | 0.0 | 0.0 | 0.00 | 0.12 | 0.12 | 87 | 1010.6 |
| 20260510001031 | 54 | 0 | 0.0 | 0.0 | 0.00 | 0.12 | 0.12 | 87 | 1010.5 |
| 20260510000529 | 55 | 0 | 0.0 | 0.0 | 0.00 | 0.12 | 0.12 | 87 | 1010.5 |
| 20260510000051 | 55 | 0 | 0.0 | 0.9 | 0.00 | 0.12 | 0.12 | 88 | 1010.6 |
| 20260509235534 | 55 | 0 | 0.0 | 0.9 | 0.00 | 0.12 | 0.12 | 88 | 1010.5 |
| 20260509235032 | 55 | 0 | 0.0 | 0.9 | 0.00 | 0.12 | 0.12 | 87 | 1010.5 |
| 20260509234545 | 55 | 0 | 0.0 | 0.0 | 0.00 | 0.12 | 0.12 | 87 | 1010.6 |
| 20260509234032 | 56 | 0 | 0.0 | 0.0 | 0.00 | 0.12 | 0.12 | 87 | 1010.6 |
| 20260509233530 | 56 | 0 | 0.0 | 0.0 | 0.00 | 0.12 | 0.12 | 87 | 1010.4 |
| 20260509233045 | 56 | 0 | 0.0 | 0.0 | 0.00 | 0.12 | 0.12 | 88 | 1010.6 |
| 20260509232531 | 56 | 0 | 0.0 | 0.0 | 0.00 | 0.12 | 0.12 | 88 | 1010.5 |
| 20260509232031 | 56 | 0 | 0.0 | 0.0 | 0.00 | 0.12 | 0.12 | 88 | 1010.5 |
| 20260509231545 | 56 | 0 | 0.0 | 0.0 | 0.00 | 0.12 | 0.12 | 89 | 1010.4 |
| 20260509231032 | 57 | 0 | 0.0 | 0.0 | 0.00 | 0.12 | 0.12 | 89 | 1010.4 |
| 20260509230530 | 57 | 0 | 0.0 | 0.0 | 0.00 | 0.12 | 0.12 | 89 | 1010.4 |
| 20260509230050 | 57 | 0 | 0.0 | 0.0 | 0.00 | 0.12 | 0.12 | 89 | 1010.5 |
| 20260509225533 | 57 | 0 | 0.0 | 2.6 | 0.00 | 0.12 | 0.12 | 89 | 1010.4 |
| 20260509225032 | 57 | 0 | 0.0 | 2.6 | 0.00 | 0.12 | 0.12 | 90 | 1010.5 |
| 20260509224545 | 57 | 0 | 0.0 | 2.6 | 0.00 | 0.12 | 0.12 | 90 | 1010.5 |
| 20260509224033 | 57 | 0 | 0.0 | 0.9 | 0.00 | 0.12 | 0.12 | 90 | 1010.5 |
| 20260509223534 | 56 | 0 | 0.0 | 1.7 | 0.00 | 0.12 | 0.12 | 90 | 1010.6 |
| 20260509223044 | 56 | 70 | 0.0 | 1.7 | 0.00 | 0.12 | 0.12 | 90 | 1010.5 |
| 20260509222529 | 56 | 0 | 0.0 | 3.5 | 0.00 | 0.12 | 0.12 | 89 | 1010.5 |
| 20260509222029 | 56 | 0 | 0.0 | 3.5 | 0.00 | 0.12 | 0.12 | 89 | 1010.5 |
| 20260509221543 | 56 | 0 | 0.0 | 2.6 | 0.00 | 0.12 | 0.12 | 89 | 1010.5 |
| 20260509221033 | 57 | 65 | 0.9 | 2.6 | 0.00 | 0.12 | 0.12 | 90 | 1010.4 |
| 20260509220534 | 57 | 0 | 0.0 | 0.9 | 0.00 | 0.12 | 0.12 | 90 | 1010.6 |
| 20260509220044 | 56 | 0 | 0.0 | 0.9 | 0.00 | 0.12 | 0.12 | 90 | 1010.6 |
| 20260509215533 | 56 | 0 | 0.0 | 0.9 | 0.00 | 0.12 | 0.12 | 90 | 1010.6 |
| 20260509215033 | 56 | 125 | 0.0 | 0.9 | 0.00 | 0.12 | 0.12 | 90 | 1010.7 |
| 20260509214557 | 56 | 0 | 0.0 | 1.7 | 0.01 | 0.12 | 0.12 | 90 | 1010.8 |
| 20260509214030 | 56 | 0 | 0.0 | 2.6 | 0.07 | 0.12 | 0.12 | 90 | 1010.7 |
| 20260509213532 | 56 | 84 | 0.0 | 2.6 | 0.07 | 0.12 | 0.12 | 90 | 1010.7 |
| 20260509213048 | 56 | 0 | 0.0 | 1.7 | 0.07 | 0.12 | 0.12 | 90 | 1010.9 |
| 20260509212532 | 56 | 124 | 0.0 | 1.7 | 0.08 | 0.12 | 0.12 | 90 | 1010.9 |
| 20260509212029 | 56 | 0 | 0.0 | 1.7 | 0.08 | 0.12 | 0.12 | 89 | 1010.9 |
| 20260509211543 | 56 | 72 | 0.0 | 1.7 | 0.09 | 0.12 | 0.12 | 89 | 1010.8 |
| 20260509211033 | 56 | 0 | 0.0 | 1.7 | 0.09 | 0.12 | 0.12 | 89 | 1010.6 |
| 20260509210531 | 56 | 0 | 0.0 | 0.9 | 0.09 | 0.12 | 0.12 | 88 | 1010.7 |
| 20260509210045 | 56 | 0 | 0.0 | 0.0 | 0.10 | 0.12 | 0.12 | 88 | 1010.7 |
| 20260509205533 | 55 | 0 | 0.0 | 0.9 | 0.10 | 0.12 | 0.12 | 88 | 1010.6 |
| 20260509205032 | 56 | 0 | 0.0 | 0.9 | 0.10 | 0.12 | 0.12 | 87 | 1010.8 |
| 20260509204546 | 56 | 0 | 0.0 | 0.9 | 0.08 | 0.10 | 0.10 | 87 | 1010.6 |
| 20260509204033 | 56 | 0 | 0.0 | 0.9 | 0.03 | 0.05 | 0.05 | 87 | 1010.8 |
| 20260509203531 | 56 | 0 | 0.0 | 2.6 | 0.03 | 0.05 | 0.05 | 87 | 1010.5 |
| 20260509203057 | 56 | 0 | 0.0 | 2.6 | 0.03 | 0.05 | 0.05 | 87 | 1010.4 |
| 20260509202533 | 56 | 0 | 0.0 | 3.5 | 0.02 | 0.04 | 0.04 | 87 | 1010.4 |
| 20260509202033 | 56 | 0 | 0.0 | 3.5 | 0.02 | 0.04 | 0.04 | 87 | 1010.7 |
| 20260509201545 | 56 | 5 | 0.9 | 3.5 | 0.01 | 0.03 | 0.03 | 86 | 1010.7 |
| 20260509201033 | 57 | 0 | 0.0 | 1.7 | 0.02 | 0.03 | 0.03 | 87 | 1010.8 |
| 20260509200529 | 57 | 0 | 0.0 | 2.6 | 0.01 | 0.02 | 0.02 | 87 | 1010.8 |
| 20260509200044 | 57 | 0 | 0.0 | 2.6 | 0.01 | 0.02 | 0.02 | 87 | 1010.9 |
| 20260509195533 | 57 | 0 | 0.0 | 2.6 | 0.01 | 0.02 | 0.02 | 87 | 1010.8 |
| 20260509195029 | 57 | 5 | 0.9 | 2.6 | 0.01 | 0.02 | 0.02 | 87 | 1010.8 |
| 20260509194548 | 57 | 0 | 0.0 | 2.6 | 0.01 | 0.02 | 0.02 | 87 | 1011.2 |
| 20260509194033 | 57 | 0 | 0.0 | 2.6 | 0.01 | 0.02 | 0.02 | 88 | 1011.1 |
| 20260509193532 | 57 | 0 | 0.0 | 2.6 | 0.01 | 0.02 | 0.02 | 87 | 1011.1 |
| 20260509193046 | 56 | 0 | 0.0 | 2.6 | 0.02 | 0.02 | 0.02 | 86 | 1011.4 |
| 20260509192532 | 57 | 241 | 0.0 | 2.6 | 0.02 | 0.02 | 0.02 | 86 | 1011.5 |
| 20260509192033 | 56 | 0 | 0.0 | 2.6 | 0.02 | 0.02 | 0.02 | 85 | 1011.5 |
| 20260509191559 | 56 | 291 | 0.9 | 2.6 | 0.02 | 0.02 | 0.02 | 85 | 1011.6 |
| 20260509191032 | 57 | 267 | 0.0 | 3.5 | 0.01 | 0.01 | 0.01 | 84 | 1011.6 |